Regional Weather Roundup
Issued by NWS Glasgow, MT

Home | Current Version | Previous Version | Text Only | Print | Product List | Glossary On
Versions: 1 2 3 4 5 6 7 8 9 10 11 12 13 14 15 16 17 18 19 20 21 22 23 24 25 26 27 28 29 30 31 32 33 34 35 36 37 38 39 40 41 42 43 44 45 46 47 48 49 50
000
ASUS45 KGGW 022215
RWRGGW
HOURLY REGIONAL WEATHER ROUNDUP FOR NORTHEAST MONTANA
NATIONAL WEATHER SERVICE GLASGOW MONTANA
400 PM MDT MON MAY 02 2016

NOTE: "FAIR" INDICATES FEW OR NO CLOUDS BELOW 12,000 FEET WITH NO
SIGNIFICANT WEATHER AND/OR OBSTRUCTIONS TO VISISBILITY.

NORTHEAST MONTANA


CITY           SKY/WX    TMP DP  RH WIND       PRES   REMARKS
GLASGOW        SUNNY     76  37  24 NW12      30.02F
PLENTYWOOD       N/A     74  27  17 SW12G20     N/A
WOLF POINT     SUNNY     79  38  22 NW12G29   29.98F
JORDAN           N/A     72  39  30 N7        30.06F
WINNETT          N/A     69  34  27 NW6G14      N/A
SIDNEY         SUNNY     72  36  26 N16G23    29.99S
GLENDIVE       PTSUNNY   72  37  28 N13G24    30.02F
MALTA            N/A     77  39  25 NW8         N/A
SCOBEY           N/A     75  34  22 N9        30.00
OPHEIM           N/A     70  30  23 CALM      29.86F

FORT PECK REPORTS


CITY           SKY/WX    TMP DP  RH WIND       PRES   REMARKS
FORT PECK        N/A     76  39  26 W15         N/A
THE PINES        N/A     76  32  20 NW6         N/A

SOUTHEAST MONTANA


CITY           SKY/WX    TMP DP  RH WIND       PRES   REMARKS
BILLINGS       MOSUNNY   70  28  21 VRB3      30.12F
MILES CITY     MOSUNNY   72  35  25 NW16G22   30.04F
BAKER          PTSUNNY   70  34  26 NW21G26   30.02F
LIVINGSTON     SUNNY     70  23  17 VRB6      30.13F

CENTRAL MONTANA


CITY           SKY/WX    TMP DP  RH WIND       PRES   REMARKS
HAVRE          SUNNY     72  39  30 W3        30.08F
LEWISTOWN      SUNNY     69  33  26 CALM      30.14F
GREAT FALLS    SUNNY     71  29  21 N5        30.12
CUT BANK       SUNNY     71  28  20 S3        30.12F
HELENA         SUNNY     73  18  12 E7        30.13F
BUTTE          SUNNY     67  14  13 N7        30.17F
BOZEMAN        SUNNY     68  28  22 SW6       30.16F

WESTERN MONTANA


CITY           SKY/WX    TMP DP  RH WIND       PRES   REMARKS
MISSOULA       SUNNY     74  30  19 CALM      30.11F
KALISPELL      NOT AVBL

NORTH DAKOTA


CITY           SKY/WX    TMP DP  RH WIND       PRES   REMARKS
WILLISTON      SUNNY     74  27  17 N14G21    29.99F
DICKINSON      SUNNY     67  31  26 N17G25    29.97S
MINOT          SUNNY     73  34  23 NE14      29.98S
BISMARCK       PTSUNNY   63  43  48 E10       29.97F

SOUTHERN SASKATCHEWAN


CITY           SKY/WX    TMP DP  RH WIND       PRES   REMARKS
REGINA         PTSUNNY   73  30  20 N14G20    29.99F
MOOSE JAW      PTSUNNY   77  34  20 N13G20    30.01F
ESTEVAN        MOSUNNY   75  34  22 CALM      29.98F
SWIFT CURRENT  SUNNY     73  34  23 NE7G21    30.03F




USA.gov is the U.S. government's official web portal to all federal, state and local government web resources and services.